{"data":{"norad_id":47841,"intl_designator":"2021-018BG","name":"STARLINK-2433","alt_names":[],"object_type":"PAYLOAD","status":"ACTIVE","operator":null,"country":"US","launch_date":"2021-03-11","launch_site_code":"AFETR","launch_vehicle":null,"mission":null,"orbit_class":"UNKNOWN","rcs_meters":null,"size_class":null,"mass_kg":null,"dimensions":null,"purposes":["comms"],"wikipedia_slug":null,"has_3d_model":false,"image_url":null,"decayed_at":null,"tle_current":{"epoch":"2026-05-25T00:09:35.562240Z","epoch_age_seconds":68321,"freshness":"FRESH","line1":"1 47841U 21018BG  26145.00666160  .00001573  00000+0  62427-4 0  9999","line2":"2 47841  53.1592 244.1058 0001345  83.2652 276.8503 15.31704620288451","mean_motion":15.3170462,"eccentricity":0.0001345,"inclination_deg":53.1592,"raan_deg":244.1058,"arg_perigee_deg":83.2652,"mean_anomaly_deg":276.8503,"bstar":6.2427e-5,"rev_number":28845,"period_min":94.01290439406,"perigee_km":469.80505117714,"apogee_km":471.6473953842,"semimajor_km":6848.8632232807,"source":"CELESTRAK","updated_at":"2026-05-25T13:38:16.608267Z"}}}